This is the latest recevied weather packets stored in our database for station/object AF5AA. If no packets are shown the sender has not sent any weather packets the latest 10 day(s).
| Time | Temp. | Humidity | Pressure | Rain* | Wind** | Luminosity | Snow |
|---|---|---|---|---|---|---|---|
| 1777997982 | 24.44° C | 84% | 1007.1 hPa | 0 mm | - | 108 W/m² | - |
| 1777997679 | 24.44° C | 84% | 1007.2 hPa | 0 mm | - | 59 W/m² | - |
| 1777997377 | 23.89° C | 83% | 1007.2 hPa | 0 mm | - | 75 W/m² | - |
| 1777997075 | 23.89° C | 84% | 1006.9 hPa | 0 mm | - | 76 W/m² | - |
| 1777996770 | 23.89° C | 85% | 1006.9 hPa | 0 mm | - | 91 W/m² | - |
| 1777996468 | 23.89° C | 85% | 1007 hPa | 0 mm | - | 55 W/m² | - |
| 1777996164 | 23.89° C | 85% | 1006.8 hPa | 0 mm | - | 85 W/m² | - |
| 1777995860 | 23.33° C | 86% | 1007.1 hPa | 0 mm | - | 107 W/m² | - |
| 1777995556 | 23.33° C | 86% | 1007 hPa | 0 mm | - | 56 W/m² | - |
| 1777995254 | 23.33° C | 86% | 1007.2 hPa | 0 mm | - | 44 W/m² | - |
| 1777994951 | 22.78° C | 86% | 1007.2 hPa | 0 mm | - | 59 W/m² | - |
| 1777994648 | 22.78° C | 87% | 1007.2 hPa | 0 mm | - | 46 W/m² | - |
| 1777994348 | 22.78° C | 86% | 1006.9 hPa | 0 mm | - | 43 W/m² | - |
| 1777994045 | 22.78° C | 86% | 1007 hPa | 0 mm | - | 54 W/m² | - |
| 1777993741 | 22.78° C | 86% | 1006.8 hPa | 0 mm | - | 34 W/m² | - |
| 1777993439 | 22.78° C | 86% | 1006.9 hPa | 0 mm | - | 32 W/m² | - |
| 1777993133 | 22.78° C | 86% | 1007.2 hPa | 0 mm | - | 49 W/m² | - |
| 1777992831 | 22.78° C | 87% | 1007.2 hPa | 0 mm | - | 54 W/m² | - |
| 1777992528 | 22.78° C | 86% | 1007.2 hPa | 0 mm | - | 26 W/m² | - |
| 1777992227 | 22.78° C | 86% | 1007.2 hPa | 0 mm | - | 25 W/m² | - |
| 1777991924 | 22.78° C | 87% | 1007.4 hPa | 0 mm | - | 27 W/m² | - |
| 1777991621 | 22.78° C | 86% | 1007.4 hPa | 0 mm | - | 28 W/m² | - |
| 1777991318 | 22.78° C | 85% | 1007.3 hPa | 0 mm | - | 25 W/m² | - |
| 1777991016 | 22.78° C | 86% | 1007.3 hPa | 0 mm | - | 35 W/m² | - |
| 1777990713 | 22.78° C | 85% | 1007.2 hPa | 0 mm | - | 43 W/m² | - |
* Rain latest hour (hover to see other rain measurements)
** Current wind speed in m/s (hover to see current wind gust speed)